Вернуться в каталог

STARLINK-2252

АктивенСвязьVLEO
NORAD 48595·PAYLOAD·🇺🇸 United States

Запущен May 15, 2021 с Cape Canaveral Space Force Station

Loading…

Ближайшие Пролёты (ближайшие 24 часа)

TLE

СвежийSource: CelesTrak SupGP

Эпоха: Sep 14, 2026, 21:19 UTC

1 48595C 21041AU  26257.88868056 -.00033616  00000+0 -10810-2 0  2579
2 48595  53.1594 348.4138 0001290  74.6273 221.1994 15.31718318    19

Отслеживайте STARLINK-2252 в реальном времени с AllMySat

Download on the App Store